This demonstration page uses our WeatherBlox Daily Observations layout. Learn more.

Left ArrowRight Arrow

44.31136, -96.79839

Hourly Observations for November 30, 2022

Temp ( °F °C ) Dew Point ( °F °C ) Humidity (%) Winds ( mph kmh ) Pressure ( in mb ) Visibility ( mi km ) Precip ( " mm )
12:56 am 00:56 Cloudy 17 -8.3 7 -13.9 64 64 WNW 30 48 30.04 1017 9 14 0.01 0.13
1:56 am 01:56 Cloudy 16 -8.9 7 -13.9 67 67 WNW 21 33 30.06 1018 10 16 0.00 0.00
2:56 am 02:56 Windy with Snow Likely 16 -8.9 8 -13.3 70 70 WNW 20 31 30.09 1019 8 13 0.01 0.13
3:56 am 03:56 Windy with Snow Likely 15 -9.4 7 -13.9 70 70 WNW 26 43 30.10 1019 9 14 0.01 0.13
4:56 am 04:56 Cloudy 14 -10 6 -14.4 70 70 WNW 25 41 30.14 1021 10 16 0.01 0.13
5:56 am 05:56 Cloudy 12 -11.1 5 -15 73 73 WNW 21 33 30.17 1022 10 16 0.00 0.00
6:13 am 06:13 Mostly Cloudy 12 -11 5 -15 72 72 WNW 21 33 30.20 1023 10 16 0.00 0.00
6:56 am 06:56 Cloudy 13 -10.6 5 -15 70 70 WNW 23 37 30.19 1023 10 16 0.00 0.00
7:56 am 07:56 Partly Cloudy 12 -11.1 5 -15 73 73 WNW 20 31 30.22 1024 10 16 0.01 0.13
8:51 am 08:51 Mostly Cloudy 14 -10 5 -15 67 67 WNW 26 43 30.25 1024 10 16 0.00 0.00
8:56 am 08:56 Mostly Cloudy 14 -10 6 -14.4 70 70 WNW 26 43 30.24 1024 10 16 0.00 0.00
9:56 am 09:56 Mostly Cloudy 15 -9.4 6 -14.4 67 67 WNW 23 37 30.28 1025 10 16 0.00 0.00
10:14 am 10:14 Partly Cloudy 16 -9 7 -14 67 67 NW 28 44 30.29 1026 10 16 0.00 0.00
10:56 am 10:56 Sunny 17 -8.3 6 -14.4 61 61 WNW 23 37 30.29 1026 10 16 0.00 0.00
11:56 am 11:56 Sunny 19 -7.2 7 -13.9 59 59 WNW 24 39 30.30 1026 10 16 0.00 0.00
12:56 pm 12:56 Sunny 20 -6.7 7 -13.9 56 56 WNW 24 39 30.31 1026 10 16 0.00 0.00
1:56 pm 13:56 Sunny 22 -5.6 7 -13.9 52 52 WNW 21 33 30.32 1027 10 16 0.00 0.00
2:56 pm 14:56 Sunny 22 -5.6 7 -13.9 52 52 NW 17 28 30.33 1027 10 16 0.00 0.00
3:56 pm 15:56 Sunny 21 -6.1 7 -13.9 54 54 WNW 14 22 30.34 1027 10 16 0.00 0.00
4:56 pm 16:56 Clear 17 -8.3 6 -14.4 61 61 W 7 11 30.37 1028 10 16 0.00 0.00
5:56 pm 17:56 Clear 15 -9.4 5 -15 64 64 WSW 6 9 30.38 1029 10 16 0.00 0.00
6:56 pm 18:56 Clear 14 -10 5 -15 67 67 SW 6 9 30.38 1029 10 16 0.00 0.00
7:56 pm 19:56 Clear 14 -10 5 -15 67 67 ESE 5 7 30.39 1029 10 16 0.00 0.00
8:56 pm 20:56 Clear 11 -11.7 5 -15 76 76 SSE 5 7 30.38 1029 10 16 0.00 0.00
9:56 pm 21:56 Clear 12 -11.1 6 -14.4 76 76 SSE 6 9 30.37 1028 10 16 0.00 0.00
10:56 pm 22:56 Clear 12 -11.1 7 -13.9 80 80 S 9 15 30.37 1029 10 16 0.00 0.00
11:56 pm 23:56 Clear 11 -11.7 6 -14.4 80 80 SE 10 17 30.35 1028 10 16 0.00 0.00

Powered by AerisWeather